Regional Weather Roundup
Issued by NWS Cleveland, OH

Home | Current Version | Previous Version | Graphics & Text | Print | Product List | Glossary On
Versions: 1 2 3 4 5 6 7 8 9 10 11 12 13 14 15 16 17 18 19 20 21 22 23 24 25 26 27 28 29 30 31 32 33 34 35 36 37 38 39 40 41 42 43 44 45 46 47 48 49 50
000
ASUS41 KCLE 300400
RWRCLE
OHIO REGIONAL WEATHER ROUNDUP
NATIONAL WEATHER SERVICE WILMINGTON, OH
1200 AM EDT SAT AUG 30 2014

NOTE: "FAIR" INDICATES FEW OR NO CLOUDS BELOW 12,000 FEET WITH NO
SIGNIFICANT WEATHER AND/OR OBSTRUCTIONS TO VISIBILITY.

OHZ001>008-015>018-024>027-034-035-043-044-300500-
   NORTHWEST OHIO

CITY           SKY/WX    TMP DP  RH WIND       PRES   REMARKS
DEFIANCE       PTCLDY    75  63  66 SE7       30.02S
FINDLAY        CLEAR     72  62  71 SE8       30.03S
TOLEDO EXPRESS PTCLDY    69  63  81 CALM      30.02S
TOLEDO METCALF CLEAR     69  62  78 SE6       30.04R
LIMA           PTCLDY    74  64  71 SE8       30.05R
$$

OHZ009>014-019>023-028>033-038-089-300500-
   NORTHEAST OHIO

CITY           SKY/WX    TMP DP  RH WIND       PRES   REMARKS
CLE-HOPKINS    PTCLDY    68  55  63 S10       30.08F
CLE-LAKEFRONT  CLEAR     71  54  54 S12       30.05S
CUY CO. ARPT   NOT AVBL
LORAIN-ELYRIA  CLEAR     69  56  62 S8        30.07S
ASHTABULA      CLEAR     65  55  70 S7        30.10F
AKRON-CANTON   CLEAR     69  54  58 SE6       30.10S
WOOSTER        NOT AVBL
MANSFIELD      CLEAR     70  58  65 S9        30.09S
YOUNGSTOWN     PTCLDY    65  54  67 SE7       30.12R
$$

OHZ042-051>053-060>062-070>072-077>081-300500-
  SOUTHWEST OHIO

CITY           SKY/WX    TMP DP  RH WIND       PRES   REMARKS
CINC-COVINGTON PTCLDY    75  69  81 S5        30.04R
CINC-LUNKEN    CLEAR     74  71  91 SW3       30.04R
HAMILTON       CLEAR     73  72  96 E3        30.04R
DAYTON         NOT AVBL
WRIGHT-PAT AFB PTCLDY    72  70  94 N3        30.05S
DAYTON GENERAL CLEAR     73  68  84 SE3       30.05R
WILMINGTON     CLEAR     71  64  78 SE6       30.06R
$$

OHZ036-037-039>041-045>050-054>059-063>069-073>076-082>088-300500-
  CENTRAL AND SOUTHEAST OHIO

CITY           SKY/WX    TMP DP  RH WIND       PRES   REMARKS
COLUMBUS       PTCLDY    77  59  53 SE6       30.06S
OSU AIRPORT    PTCLDY    75  61  61 SE7       30.07R
BOLTON FIELD   NOT AVBL
RICKENBACK AFB NOT AVBL
NEWARK         CLEAR     65  62  90 CALM      30.08S
MARION         CLEAR     69  61  75 SE7       30.07S
LANCASTER      CLEAR     73  61  65 S6        30.07S
ZANESVILLE     CLEAR     66  60  81 SE3       30.09F
NEW PHILLY     CLEAR     61  59  93 CALM      30.11R
$$


USA.gov is the U.S. government's official web portal to all federal, state and local government web resources and services.